Skip Navigation 
NOAA logo - Select to go to the NOAA homepage National Weather Service
 Headquarters Office   NWS logo
Internet Weather Source

On or about April 4th, 2012, request for METARS through this service will be redirected to:

This redirection is part of a larger effort to reduce duplication of effort within the National Weather Service. The website above offers the same functionality. It also needs to be noted that the NWS Aviation Weather Center operated website above is the only FAA approved source of aviation weather overe the Internet to be used for pilot briefings. Please update bookmarks, links, etc..


The most recent METAR observation from KDTO in our system was generated at the source at:

2015/11/27 13:11 UTC

The observation is:

2015/11/27 12:53 KDTO 271253Z 32010KT 3SM -RA BR OVC008 06/06 A3019 RMK AO2 SLP220 P0001 T00610056

US Dept of Commerce
National Oceanic and Atmospheric Administration
National Weather Service
Office of the Chief Information Officer (OCIO13)
1325 East West Highway
Silver Spring, MD 20910
Page last modified: Feb 28, 2012
Page Author: NWS Webmaster
Privacy Notice